Current Version              Previous Version:    01  02  03  04  05  06  07  08  09  10  11  12  13  14  15  16  17  18  19  20  21  22  23  24  25  26  27  28  29  30  
   31  32  33  34  35  36  37  38  39  40  41  42  43  44  45  46  47  48  49  50  51  52  53  54  55  56  57  58  59  60  

[Printable]
716
ASUS44 KLUB 230601
RWRTX
WEST TEXAS WEATHER ROUNDUP
NATIONAL WEATHER SERVICE LUBBOCK TX
1200 AM CST SUN NOV 23 2014

NOTE: "FAIR" INDICATES FEW OR NO CLOUDS BELOW 12,000 FEET WITH NO
SIGNIFICANT WEATHER AND/OR OBSTRUCTIONS TO VISIBILITY.

TXZ004-006>008-010-012-014-016-OKZ002-230700-
TEXAS PANHANDLE/OKLAHOMA PANHANDLE

CITY           SKY/WX    TMP DP  RH WIND       PRES   REMARKS
AMARILLO       CLEAR     40  30  67 S9        29.59F WCI  34
BORGER         CLEAR     47  42  83 S13       29.56F
CANADIAN       PTCLDY    52  50  93 S14       29.58F
DALHART        CLOUDY    35  19  52 SW5       29.56F WCI  31
DUMAS            N/A     40  19  42 SW14      29.54F WCI  33
GUYMON         PTCLDY    43  40  89 S8        29.52F
HEREFORD       PTCLDY    53  22  30 S23G32    29.62F
$$

TXZ026-029-035-045-048-230700-
SOUTHERN PANHANDLE/SOUTH PLAINS/ROLLING PLAINS

CITY           SKY/WX    TMP DP  RH WIND       PRES   REMARKS
CHILDRESS      PTCLDY    51  50  96 S13       29.64F
LUBBOCK        CLEAR     45  30  55 SW9       29.68F
$$

TXZ052-054-060>062-072-078-127-140-154-169-230700-
PERMIAN BASIN/CONCHO VALLEY/BIG COUNTRY/EDWARDS PLATEAU

CITY           SKY/WX    TMP DP  RH WIND       PRES   REMARKS
ABILENE        MOCLDY    53  51  93 S8        29.72F
JUNCTION       PTCLDY    55  53  93 NW3       29.77F
MIDLAND        CLEAR     52  38  58 W12       29.77F
ODESSA         CLEAR     53  33  46 W10       29.78F
SAN ANGELO     CLEAR     50  49  96 S3        29.75F
WINK           CLEAR     47  34  60 SW6       29.78F
$$

TXZ055-058-074-075-080-082-230700-
FAR WEST/SOUTHWEST MOUNTAINS/TRANS PECOS

CITY           SKY/WX    TMP DP  RH WIND       PRES   REMARKS
ALPINE         CLEAR     53  33  46 W18G25    29.95F
DRYDEN           N/A     53  39  59 W9        29.80F
EL PASO        CLEAR     56  19  23 SW23      29.90R
FORT STOCKTON  CLEAR     52  37  56 SW13      29.83F
MARFA          CLEAR     45  34  65 W7        29.96F
$$

TXZ014-016-019-021>030-083-230700
TEXAS TECH WEST TEXAS MESONET/TEXAS PANHANDLE/NORTHERN SOUTH PLAINS

CITY           SKY/WX    TMP DP  RH WIND       PRES   REMARKS
AMARILLO 9NNE    N/A     53  20  28 S12       29.57F
AMARILLO 7SSE    N/A     49  21  33 S12       29.60F
AMHERST 1NE      N/A     50  20  29 SW13      29.67F
BOOTLEG 11WNW    N/A     47  19  33 SW18      29.66F
CANADIAN 6E      N/A     51  49  93 S12       29.58F
CAPROCK CYN SP   N/A     50  47  89 SW16      29.63F
CHILDRESS 2NNE   N/A     51  50  97 S16       29.63F
CLARENDON 2WSW   N/A     49  47  94 S10       29.61F
CLAUDE 12SW      N/A     46  38  74 S9        29.61F
DIMMITT 2NE      N/A     49  21  32 SW18      29.64F
FLOYDADA 2NNE    N/A     47  46  99 S13       29.66F
FRIONA 2NE       N/A     51  19  28 SW20      29.65F
GOODLETT 3W      N/A     52  50  93 S10       29.65F
HART 3N          N/A     49  22  34 SW16      29.64F
HEREFORD 2NW     N/A     50  19  29 SW17      29.62F
MCLEAN 1E        N/A     45  44  98 S10       29.60F
MEMPHIS 1NE      N/A     42  41  97 SE2       29.63F
MULESHOE 2SSW    N/A     52  19  27 SW15      29.67F
OLTON 6S         N/A     51  20  30 SW17      29.66F
PALO DURO SP     N/A     47  23  39 S10       29.62F
PAMPA 2E         N/A     47  47  99 S16       29.59F
PLAINVIEW 1S     N/A     46  29  52 SW10      29.65F
SILVERTON 7ESE   N/A     46  45  96 S12       29.63F
TULIA 2ENE       N/A     51  23  33 SW14      29.63F
TURKEY 2WSW      N/A     48  47  97 S8        29.63F
UMBARGER 3NNE    N/A     49  21  33 SW17      29.60F
$$

TXZ033>036-039>041-045>048-230700
TEXAS TECH WEST TEXAS MESONET/SOUTH PLAINS

CITY           SKY/WX    TMP DP  RH WIND       PRES   REMARKS
AIKEN 3WSW       N/A     43  38  82 SW10      29.67F
ANTON 6SSW       N/A     47  24  40 SW8       29.69F
BROWNFIELD 2S    N/A     44  30  59 SW9       29.72F
DENVR CTY 7WNW   N/A     47  26  44 W12       29.75F
GAIL 2ESE        N/A     50  49  97 SW8       29.73F
LAMESA 2SE       N/A     44  44  98 SW8       29.75F
LEVELLAND 4S     N/A     49  20  31 SW10      29.70F
LUBBOCK 3WNW     N/A     48  27  43 SW9       29.69F
MORTON 1ENE      N/A     52  19  27 SW16      29.70F
ODONNELL 1N      N/A     48  47  96 S8        29.73F
PLAINS 3N        N/A     44  29  54 SW10      29.74F
RALLS 1SE        N/A     48  48  99 S9        29.70F
REESE CENTER     N/A     44  25  46 SW9       29.69F
SEAGRAVES 1SW    N/A     45  31  57 SW10      29.73F
SEMINOLE 2NNE    N/A     46  29  51 SW7       29.74F
SLATON 2NE       N/A     48  48  98 S13       29.70F
SNYDER 3E        N/A     51  51  98 S10       29.73F
SUNDOWN 8SW      N/A     45  22  39 SW12      29.72F
TAHOKA 3NNE      N/A     48  47  99 S8        29.71F
WOLFFORTH 6SSW   N/A     43  30  60 S8        29.71F
$$

TXZ031-032-036>038-042>044-230700-
TEXAS TECH WEST TEXAS MESONET/ROLLING PLAINS

CITY           SKY/WX    TMP DP  RH WIND       PRES   REMARKS
ASPERMONT 3NE    N/A     50  50  98 SW7       29.68F
FLUVANNA 3WNW    N/A     51  50  95 S10       29.73F
GRAHAM 5SSW      N/A     51  50  96 SW6       29.72F
GUTHRIE 10WSW    N/A     47  46  97 S7        29.68F
HASKELL 1NW      N/A     50  49  97 S9        29.68F
JAYTON 1SSE      N/A     49  48  97 W8        29.70F
KNOX CITY 3NW    N/A     48  46  90 SW6       29.68F
LK A HENRY 1NW   N/A     53  52  95 SW9       29.71F
NORTHFIELD 1S    N/A     50  48  94 S9        29.64F
ODELL 4ENE       N/A     51  51  99 S9        29.67F
PADUCAH 10SW     N/A     47  46  97 S12       29.66F
POST 1NE         N/A     52  51  97 SW8       29.71F
RRING SPRGS 3N   N/A     51  50  98 SW13      29.66F
SEYMOUR 3NW      N/A     53  51  93 S7        29.67F
SPUR 1W          N/A     43  42  96 SW2       29.69F
WEINERT 2NNE     N/A     49  49  97 SW6       29.68F
WHITE RVR 6NE    N/A     52  52  97 SW15      29.69F
$$

TXZ052-054-060>062-072-078-127-140-154-169-230700-
TEXAS TECH WEST TEXAS MESONET/PERMIAN BASIN/
CONCHO VALLEY/BIG COUNTRY/EDWARDS PLATEAU

CITY           SKY/WX    TMP DP  RH WIND       PRES   REMARKS
COYANOSA 2N      N/A     54  36  51 SW10      29.80F
JUNCTION 1SSW    N/A     53  51  94 S2        29.78F
MERTZON 3NNE     N/A     51  50  97 S3        29.78F
SAN ANGELO 7NW   N/A     51  50  93 W2        29.76S
STRLNG CT 4WSW   N/A     53  51  95 S1        29.76F
ST LAWRNCE 5SW   N/A     52  43  70 SW9       29.77F
SWEETWATR 11SW   N/A     51  51  99 S6        29.74F
WALL 1E          N/A     50  48  93 SE3       29.77S
$$

TXZ055-058-074-075-080-082-230700-
TEXAS TECH WEST TEXAS MESONET/FAR WEST/SOUTHWEST MOUNTAINS/TRANS PECOS

CITY           SKY/WX    TMP DP  RH WIND       PRES   REMARKS
PRSMN GAP BBNP   N/A     55  38  52 CALM      29.90S
GUADLPE MTN NP   N/A     51  16  24 W43       29.82F
$$